Regional Weather Roundup
Issued by NWS

Home | Current Version | Previous Version | Text Only | Print | Product List | Glossary Off
Versions: 1 2 3 4 5 6 7 8 9 10 11 12 13 14 15 16 17 18 19 20 21 22 23 24 25 26 27 28 29 30 31 32 33 34 35 36 37 38 39 40 41 42 43 44 45 46 47 48 49 50

234
ASUS44 KLIX 230305
RWRLA
LOUISIANA WEATHER ROUNDUP
NATIONAL WEATHER SERVICE NEW ORLEANS LA
900 PM CST SAT NOV 22 2014

NOTE: "FAIR" INDICATES FEW OR NO CLOUDS BELOW 12,000 FEET WITH NO
      SIGNIFICANT WEATHER AND/OR OBSTRUCTIONS TO VISIBILITY.
      SKY/WX - SKY CONDITION AND SIGNIFICANT WEATHER.
      TMP - AIR TEMPERATURE.    DP   - DEWPOINT TEMPERATURE.
      RH  - RELATIVE HUMIDITY.  PRES - PRESSURE.
      HX  - HEAT INDEX.         WCI  - WIND CHILL INDEX.

*  THESE STATIONS ARE NOT NWS OR FAA STATIONS AND ARE NOT UNDER
   NWS QUALITY CONTROL.

LAZ040-048-061>063-065-066-069-230400-
SOUTHEAST LOUISIANA

CITY           SKY/WX    TMP DP  RH WIND       PRES   REMARKS
N.O. AUDUBON     N/A     65  62  90 MISG        N/A
N.O. INTL ARPT CLOUDY    64  60  87 E9G20     29.94F
N.O. LAKEFRONT CLOUDY    63  60  90 E17       29.95F FOG
N.O. DOWNTOWN* MOCLDY    64  57  77 NE6       29.94F
SLIDELL        CLOUDY    65  61  87 E13       29.96F
BATON ROUGE    CLOUDY    64  60  87 E10       29.93F
BOOTHVILLE     CLOUDY    62  62 100 NE9       29.99R
BELLE CHASSE   CLOUDY    66  61  84 E15       29.93F
BOGALUSA*        N/A     64  59  81 E5        30.00F
NEW ROADS*     CLOUDY    64  59  85 E8        29.94R
GONZALES*      CLOUDY    63  63 100 E7        29.93F
HAMMOND*       CLOUDY    64  59  82 E13       29.95F
HOUMA*         LGT RAIN  66  64  96 E10       29.93S
PORT FOURCHON* MOCLDY    66  64  94 E10       29.98F FOG

$$

LAZ041-044-053-054-230400-
SOUTHWEST LOUISIANA

CITY           SKY/WX    TMP DP  RH WIND       PRES   REMARKS
LAKE CHARLES   CLOUDY    65  63  93 E10       29.88R
LAFAYETTE      CLOUDY    65  61  87 VRB6      29.91R
PATTERSON      CLOUDY    66  63  88 SE7       29.95R
SALT POINT       N/A     68  64  87 SE8       29.91R
NEW IBERIA     MOCLDY    66  62  87 SE12      29.91S
CHENAULT AIRPK CLOUDY    65  64  95 SE9       29.88F

$$

LAZ027-028-230400-
CENTRAL LOUISIANA

CITY           SKY/WX    TMP DP  RH WIND       PRES   REMARKS
FORT POLK      CLOUDY    63  61  94 SE10      29.86F
ALEXANDRIA INT LGT RAIN  64  59  83 SE16      29.88F
ALEXANDRIA     CLOUDY    64  58  80 SE13      29.90F

$$

LAZ001-002-230400-
NORTHWEST LOUISIANA

CITY           SKY/WX    TMP DP  RH WIND       PRES   REMARKS
SHREVEPORT     RAIN      63  60  90 SE10      29.84F FOG
BARKSDALE AFB  LGT RAIN  63  58  84 SE9       29.86F
DTN SHREVEPORT LGT RAIN  63  57  81 E9        29.86F

$$

LAZ014-016-230400-
NORTHEAST LOUISIANA

CITY           SKY/WX    TMP DP  RH WIND       PRES   REMARKS
MONROE         CLOUDY    63  56  78 SE8       29.92F
TALLULAH       PTCLDY    60  52  74 SE9       29.96F

$$




USA.gov is the U.S. government's official web portal to all federal, state and local government web resources and services.